Location: Pedholt
(56.0260°N, 10.2097°E)
Time: 00:29:05
(UTC+00:00)

A-11 Canister half - Pass Details

Date: 29 July 2021
Orbit: 1515 x 1685 km, 47.2° (Epoch: 19 September)

Event Time Altitude Azimuth Distance (km) Brightness Sun altitude
Rises 15:57:29 0° 196° (SSW) 4,794 11.9 27.6°
Reaches altitude 10° 16:01:24 10° 183° (S) 3,840 11.3 27.0°
Maximum altitude 16:08:27 23° 136° (SE) 2,989 10.4 26.1°
Drops below altitude 10° 16:15:39 10° 90° (E) 3,933 10.7 25.1°
Sets 16:19:41 0° 77° (ENE) 4,937 11.1 24.5°
